Regional Weather Roundup
Issued by NWS New Orleans/Baton Rouge, LA

Home | Current Version | Previous Version | Text Only | Print | Product List | Glossary Off
Versions: 1 2 3 4 5 6 7 8 9 10 11 12 13 14 15 16 17 18 19 20 21 22 23 24 25 26 27 28 29 30 31 32 33 34 35 36 37 38 39 40 41 42 43 44 45 46 47 48 49 50

969
ASUS44 KLIX 262207
RWRLIX
NEW ORLEANS REGIONAL WEATHER ROUNDUP
NATIONAL WEATHER SERVICE NEW ORLEANS LA
500 PM CDT THU MAR 26 2015

NOTE: "FAIR" INDICATES FEW OR NO CLOUDS BELOW 12,000 FEET WITH NO
      SIGNIFICANT WEATHER AND/OR OBSTRUCTIONS TO VISIBILITY.
      SKY/WX - SKY CONDITION AND SIGNIFICANT WEATHER.
      TMP - AIR TEMPERATURE.     DP    - DEWPOINT TEMPERATURE.
      RH  - RELATIVE HUMIDITY.   PRES  - PRESSURE.
      HI  - HEAT INDEX.          WCI   - WIND CHILL INDEX.

*  THESE STATIONS ARE NOT NWS OR FAA STATIONS AND ARE NOT UNDER
   NWS QUALITY CONTROL.

LAZ038-040-048-061>063-065>067-069-262300-
SOUTHEAST LOUISIANA

CITY           SKY/WX    TMP DP  RH WIND       PRES   REMARKS
N.O. AUDUBON     N/A     64  64  97 MISG        N/A
N.O. INTL ARPT CLOUDY    63  58  83 S7        29.83R
N.O. LAKEFRONT CLOUDY    66  57  72 SE8       29.80F
SLIDELL        CLOUDY    66  63  90 CALM      29.82F
BATON ROUGE    CLOUDY    68  61  78 SW6       29.83R
BOOTHVILLE     LGT RAIN  67  66  97 S3        29.83F FOG
BELLE CHASSE   LGT RAIN  64  61  90 SE10      29.77F FOG
BOGALUSA*      LGT RAIN  71  64  79 W7        29.85R
GALLIANO*      TSTM      57  57  99 MISG      29.79F
NEW ROADS*     LGT RAIN  66  65  96 S5        29.83S
GONZALES*        N/A     65  65 100 CALM      29.83R
HAMMOND*       CLOUDY    68  57  68 CALM      29.82F
HOUMA*         PTSUNNY   63  63 100 SE13      29.78F
PORT FOURCHON* CLEAR     66  64  94 S6        29.89F FOG

$$

MSZ070-080>082-262300-
SOUTHERN MISSISSIPPI

CITY           SKY/WX    TMP DP  RH WIND       PRES   REMARKS
MCCOMB         TSTM      66  65  96 CALM      29.82R FOG
GULFPORT       CLOUDY    67  62  84 SW7       29.83S
BILOXI         CLOUDY    67  64  91 W7        29.83S
PASCAGOULA     CLOUDY    67  66  97 VRB5      29.81F
STENNIS ARPT*  CLOUDY    66  61  82 W6        29.85F

$$

COASTAL OBSERVATIONS
LAKE AND NEARSHORE STATIONS

STATION/POSITION TIME  TEMP    WIND        PRES    WAVE
                       AIR SEA DIR/SP/G            HT/PER
                 (UTC) (F)     (DEG/KT/KT) (MB)    (FT/S)
PASCAGOULA       2100   69     220/  7/  8 1009.8
WAVELAND YACHT   2100   67 70  230/  9/ 11 1010.7
GRAND ISLE       2100   67 71  250/  5/  7 1012.2
SOUTHWEST PASS   2100   61 51  220/  8/ 11 1013.1
NEW CANAL        2100   64     210/  8/ 11 1010.5
SHELL BEACH      2100   64 72  260/ 13/ 17 1012.0

OFFSHORE STATIONS

STATION/POSITION TIME  TEMP    WIND        PRES    WAVE
                       AIR SEA DIR/SP/G            HT/PER
                 (UTC) (F)     (DEG/KT/KT) (MB)    (FT/S)
64 S DAUPHIN ISL 2150   68 72  280/  8/ 10 1012.5    2/ 6

$$




USA.gov is the U.S. government's official web portal to all federal, state and local government web resources and services.